[[{"header":{"parameterUnit":"m.s-1","parameterCategory":1,"la1":30.2991,"la2":30.254,"lo1":-89.0895,"lo2":-89.0444,"dy":0.0017,"dx":0.0017,"nx":28,"ny":28,"refTime":"2025-12-12T03:00:00:Z","depth":0,"parameterNumber":2,"parameterNumberName":"U-component_of_WINDS"},"data":[0,0,0,0,0,0,0,0,0,0,0,0,0,0,0,0,0,0,0,0,0,0,0,0,0,0,0,0,0,0,0,0,0,0,0,0,0,0,0,0,0,0,0,0,0,0,0,0,0,0,0,0,0,0,0,0,0,0,-1.2961,-1.2961,0,-1.2978,-1.2978,-1.2978,-1.2948,-1.2947,-1.2946,-1.2945,-1.2965,-1.2966,-1.2968,0,0,0,0,0,0,0,0,0,0,0,0,0,-1.2907,-1.2908,-1.2961,-1.2961,-1.2961,-1.2978,-1.2978,-1.2978,-1.2948,-1.2947,-1.2946,-1.2945,-1.2965,-1.2966,-1.2968,0,0,0,0,0,0,0,0,0,0,0,0,0,-1.2928,-1.2909,-1.2961,-1.2949,-1.2948,-1.2978,-1.2978,-1.2978,-1.2949,-1.2947,-1.2946,-1.2944,-1.2964,-1.2966,-1.2968,-1.3012,0,0,-1.2975,-1.2976,0,0,0,0,0,0,0,0,-1.2927,-1.293,-1.295,-1.2949,-1.2948,-1.2959,-1.2966,-1.299,-1.2949,-1.2948,-1.2945,-1.2944,-1.2965,-1.2967,-1.2973,-1.3013,-1.3014,-1.2975,-1.2977,-1.2977,-1.2978,0,0,0,0,0,0,0,-1.2926,-1.2929,-1.2968,-1.2951,-1.2949,-1.2943,-1.2945,-1.297,-1.2965,-1.2948,-1.2946,-1.2948,-1.2964,-1.2971,-1.2973,-1.3014,-1.2975,-1.2977,-1.2978,-1.2979,-1.3093,-1.3095,0,0,0,0,0,0,-1.2925,-1.2928,-1.2967,-1.2968,-1.2934,-1.2946,-1.2947,-1.2957,-1.2964,-1.2964,-1.295,-1.2947,-1.2968,-1.2971,-1.2974,-1.3026,-1.2977,-1.298,-1.2981,-1.3091,-1.3093,-1.3095,0,0,0,0,0,0,-1.2924,-1.2929,-1.2966,-1.2948,-1.2952,-1.2948,-1.296,-1.2959,-1.2966,-1.2965,-1.2965,-1.2958,-1.2967,-1.2971,-1.3003,-1.3027,-1.298,-1.2982,-1.3089,-1.3092,-1.3094,-1.3131,0,0,0,0,0,0,-1.2923,-1.2929,-1.2944,-1.2948,-1.2953,-1.2994,-1.2961,-1.296,-1.2969,-1.2966,-1.2973,-1.2973,-1.2966,-1.3,-1.3005,-1.3029,-1.2984,-1.3087,-1.309,-1.3093,-1.3128,-1.3135,-1.3141,0,0,0,0,0,-1.2921,-1.2954,-1.2945,-1.295,-1.2972,-1.2995,-1.2998,-1.2989,-1.2971,-1.2987,-1.2988,-1.2972,-1.3024,-1.3003,-1.3009,-1.3034,-1.3086,-1.3089,-1.3093,-1.3125,-1.3133,-1.314,0,0,0,0,0,0,-1.2953,-1.2954,-1.2944,-1.2979,-1.2988,-1.299,-1.301,-1.2998,-1.3012,-1.3008,-1.2998,-1.3,-1.3034,-1.3038,-1.3015,-1.3078,-1.3052,-1.3057,-1.3074,-1.3082,-1.3088,-1.3086,-1.2986,0,0,0,0,0,-1.2964,-1.2982,-1.2983,-1.3014,-1.3018,-1.3014,-1.3024,-1.3016,-1.3024,-1.3028,-1.303,-1.304,-1.3058,-1.307,-1.3087,-1.3129,-1.3131,-1.3149,-1.3155,-1.3161,-1.3165,-1.3189,-1.3197,-1.3108,-1.3108,-1.3108,0,0,-1.2988,-1.299,-1.3002,-1.302,-1.3026,-1.3046,-1.3017,-1.3039,-1.3054,-1.3031,-1.3062,-1.3064,-1.3075,-1.3112,-1.3129,-1.3116,-1.319,-1.3165,-1.317,-1.3171,-1.3194,-1.3202,-1.321,-1.311,-1.311,-1.3109,0,0,-1.304,-1.3044,-1.307,-1.3077,-1.3085,-1.3082,-1.3089,-1.3094,-1.3095,-1.3125,-1.3109,-1.3128,-1.316,-1.3168,-1.3176,-1.3235,-1.3222,-1.3241,-1.3274,-1.3297,-1.3304,-1.331,-1.3332,-1.3339,-1.3245,-1.3245,-1.3245,0,-1.3068,-1.3096,-1.3086,-1.3109,-1.3118,-1.3099,-1.3127,-1.3134,-1.3148,-1.3156,-1.3141,-1.3181,-1.3187,-1.3226,-1.3241,-1.3248,-1.3256,-1.3239,-1.3304,-1.331,-1.3315,-1.3336,-1.3344,-1.3248,-1.3247,-1.3247,-1.3247,0,-1.313,-1.315,-1.3171,-1.3185,-1.3197,-1.3222,-1.3218,-1.3231,-1.3224,-1.3223,-1.3255,-1.3262,-1.328,-1.3289,-1.3282,-1.3329,-1.332,-1.3305,-1.3279,-1.3326,-1.3345,-1.3353,-1.3251,-1.325,-1.3249,-1.3249,0,0,-1.3201,-1.321,-1.3218,-1.3225,-1.3234,-1.325,-1.3276,-1.3294,-1.3306,-1.3317,-1.3339,-1.3368,-1.3354,-1.3364,-1.3358,-1.3378,-1.3425,-1.336,-1.3361,-1.3372,-1.3479,-1.349,-1.3499,-1.3418,-1.3419,-1.342,-1.3478,0,-1.3253,-1.3296,-1.3289,-1.3332,-1.3351,-1.3335,-1.3358,-1.3367,-1.3368,-1.3385,-1.3387,-1.3407,-1.3387,-1.3393,-1.3413,-1.3415,-1.3447,-1.3411,-1.3439,-1.344,-1.3436,-1.3509,-1.352,-1.3574,-1.3485,-1.3487,-1.3487,0,-1.3319,-1.3333,-1.3377,-1.3385,-1.3393,-1.3413,-1.3429,-1.3446,-1.3457,-1.3457,-1.3469,-1.346,-1.3488,-1.3462,-1.3501,-1.3477,-1.3489,-1.3492,-1.3494,-1.3495,-1.3466,-1.3512,-1.3591,-1.3599,-1.3499,-1.3498,-1.3497,0,-1.3367,-1.3396,-1.3427,-1.3433,-1.3443,-1.3458,-1.3463,-1.3472,-1.3484,-1.3499,-1.3507,-1.3526,-1.3536,-1.3551,-1.3549,-1.353,-1.3589,-1.3563,-1.359,-1.359,-1.3602,-1.3601,-1.3684,-1.3611,-1.3611,-1.361,-1.361,0,-1.3425,-1.3453,-1.3448,-1.3467,-1.3498,-1.3491,-1.3523,-1.3526,-1.3536,-1.3556,-1.3544,-1.3563,-1.3559,-1.3579,-1.3577,-1.3611,-1.3615,-1.3617,-1.3616,-1.3617,-1.3617,-1.3624,-1.362,-1.3613,-1.3612,-1.3612,-1.3611,0,-1.3483,-1.3481,-1.3513,-1.352,-1.3523,-1.3546,-1.3553,-1.3571,-1.3572,-1.3598,-1.3604,-1.3606,-1.3629,-1.3628,-1.3655,-1.3654,-1.3695,-1.369,-1.3691,-1.3689,-1.3717,-1.3715,-1.3806,-1.3818,-1.3738,-1.3739,-1.3739,0,-1.352,-1.3541,-1.355,-1.3563,-1.3569,-1.3589,-1.3601,-1.3596,-1.3609,-1.3625,-1.3642,-1.3664,-1.3681,-1.372,-1.3725,-1.3746,-1.3741,-1.3772,-1.3744,-1.3745,-1.3742,-1.374,-1.3743,-1.3777,-1.3778,-1.3779,-1.3779,0,-1.3586,-1.3584,-1.3601,-1.3619,-1.3633,-1.3647,-1.366,-1.3671,-1.3668,-1.3684,-1.3707,-1.3721,-1.3748,-1.3771,-1.3792,-1.3799,-1.3789,-1.3788,-1.3796,-1.3797,-1.3797,-1.3798,-1.3705,-1.3786,-1.3785,-1.3785,-1.3784,-1.3784,-1.3634,-1.3652,-1.3662,-1.3683,-1.3692,-1.3704,-1.3723,-1.3726,-1.3745,-1.3766,-1.3763,-1.379,-1.3803,-1.3829,-1.3839,-1.3861,-1.385,-1.3861,-1.3863,-1.3866,-1.3869,-1.3794,-1.3865,-1.3864,-1.3864,-1.3864,-1.3864,0,-1.3699,-1.3705,-1.3724,-1.3742,-1.3759,-1.3748,-1.3762,-1.3777,-1.38,-1.3813,-1.3831,-1.3859,-1.3881,-1.3889,-1.3911,-1.3927,-1.3924,-1.3934,-1.3932,-1.3934,-1.3877,-1.3868,-1.3936,-1.3936,-1.3936,-1.3936,-1.3936,-1.3936,-1.3735,-1.3766,-1.3766,-1.3802,-1.3809,-1.3834,-1.3843,-1.3856,-1.3866,-1.3897,-1.3916,-1.392,-1.3931,-1.3955,-1.3976,-1.3978,-1.3987,-1.3998,-1.3998,-1.3945,-1.3938,-1.3931,-1.3922,-1.4,-1.4001,-1.4053,-1.4054,-1.4054]},{"header":{"parameterUnit":"m.s-1","parameterCategory":1,"la1":30.2991,"la2":30.254,"lo1":-89.0895,"lo2":-89.0444,"dy":0.0017,"dx":0.0017,"nx":28,"ny":28,"refTime":"2025-12-12T03:00:00:Z","depth":0,"parameterNumber":3,"parameterNumberName":"V-component_of_WINDS"},"data":[0,0,0,0,0,0,0,0,0,0,0,0,0,0,0,0,0,0,0,0,0,0,0,0,0,0,0,0,0,0,0,0,0,0,0,0,0,0,0,0,0,0,0,0,0,0,0,0,0,0,0,0,0,0,0,0,0,0,0.9586,0.9586,0,0.9516,0.9516,0.9515,0.9575,0.9578,0.958,0.9583,0.9506,0.9501,0.9497,0,0,0,0,0,0,0,0,0,0,0,0,0,0.9767,0.9763,0.9586,0.9586,0.9585,0.9517,0.9516,0.9515,0.9575,0.9578,0.9581,0.9584,0.9507,0.9502,0.9497,0,0,0,0,0,0,0,0,0,0,0,0,0,0.9692,0.9762,0.9587,0.9607,0.9608,0.9517,0.9516,0.9514,0.9574,0.9578,0.9582,0.9585,0.9509,0.9502,0.9496,0.938,0,0,0.9476,0.9473,0,0,0,0,0,0,0,0,0.9696,0.9685,0.9605,0.9605,0.9606,0.9559,0.9551,0.9469,0.9573,0.9587,0.9583,0.9587,0.952,0.9513,0.9491,0.9376,0.9373,0.9475,0.9471,0.9468,0.9467,0,0,0,0,0,0,0,0.9701,0.9688,0.9559,0.9603,0.9604,0.9617,0.9611,0.9536,0.9533,0.9586,0.959,0.9581,0.9521,0.9497,0.949,0.9372,0.9475,0.947,0.9466,0.9463,0.9158,0.9154,0,0,0,0,0,0,0.9705,0.9692,0.9561,0.9557,0.9661,0.9611,0.9604,0.957,0.9534,0.9532,0.9578,0.9584,0.9507,0.9497,0.9487,0.9348,0.9468,0.9462,0.9459,0.9162,0.9157,0.9152,0,0,0,0,0,0,0.9709,0.9693,0.9564,0.9626,0.961,0.9604,0.9565,0.9567,0.9543,0.9528,0.9527,0.9555,0.9509,0.9496,0.9406,0.9347,0.9459,0.9453,0.9167,0.916,0.9154,0.907,0,0,0,0,0,0,0.9713,0.9694,0.9651,0.9624,0.9607,0.9485,0.9562,0.9562,0.9532,0.954,0.9506,0.9504,0.9511,0.9416,0.94,0.934,0.9448,0.9172,0.9164,0.9156,0.9078,0.9062,0.9048,0,0,0,0,0,0.972,0.9629,0.9648,0.9632,0.9553,0.9482,0.9472,0.9483,0.9527,0.9483,0.9473,0.9505,0.9356,0.9406,0.9389,0.9325,0.9176,0.9166,0.9157,0.9085,0.9065,0.9048,0,0,0,0,0,0,0.9646,0.9626,0.9647,0.9545,0.9515,0.9492,0.9437,0.9462,0.9417,0.9426,0.9441,0.9432,0.9337,0.9323,0.9379,0.9211,0.9273,0.9259,0.9224,0.9205,0.919,0.9195,0.9443,0,0,0,0,0,0.9619,0.9564,0.9548,0.946,0.9444,0.9443,0.9412,0.9424,0.9393,0.938,0.9363,0.933,0.9276,0.924,0.9189,0.9077,0.9069,0.9024,0.9009,0.8997,0.8985,0.8923,0.8903,0.9121,0.9121,0.9122,0,0,0.956,0.9542,0.9507,0.9445,0.9423,0.9364,0.9432,0.9367,0.9323,0.9369,0.9283,0.927,0.9234,0.9132,0.9086,0.9117,0.8923,0.8985,0.8975,0.897,0.8911,0.8891,0.8872,0.9115,0.9116,0.9117,0,0,0.9424,0.9405,0.933,0.9306,0.9273,0.9273,0.9254,0.9228,0.9221,0.9136,0.9169,0.9116,0.9023,0.8996,0.8969,0.8822,0.8849,0.8805,0.8725,0.8665,0.8648,0.8633,0.8579,0.856,0.8794,0.8793,0.8793,0,0.9355,0.927,0.9287,0.922,0.9191,0.9232,0.9154,0.913,0.9081,0.9059,0.9094,0.8978,0.8956,0.8848,0.8812,0.879,0.8768,0.8809,0.8649,0.8634,0.862,0.8569,0.8549,0.8788,0.8789,0.8789,0.879,0,0.9186,0.9127,0.9069,0.9022,0.8987,0.8915,0.8919,0.8881,0.8895,0.8891,0.8803,0.8779,0.8723,0.8699,0.8712,0.8592,0.8612,0.8648,0.871,0.8594,0.8546,0.8527,0.8781,0.8783,0.8784,0.8785,0,0,0.9001,0.8965,0.8944,0.8923,0.8889,0.8842,0.8771,0.8719,0.8685,0.8649,0.8589,0.8509,0.8542,0.8513,0.8523,0.847,0.8354,0.8513,0.8512,0.8483,0.8219,0.8191,0.8168,0.8372,0.8369,0.8366,0.8221,0,0.8863,0.8742,0.8754,0.8638,0.8582,0.862,0.8558,0.8529,0.8523,0.8473,0.8466,0.8409,0.8458,0.844,0.8389,0.8379,0.8301,0.839,0.8314,0.8311,0.8321,0.8144,0.8114,0.7979,0.8203,0.82,0.8198,0,0.8685,0.8645,0.8523,0.8498,0.8475,0.8419,0.8372,0.8324,0.8292,0.8291,0.8258,0.8277,0.8204,0.8269,0.8167,0.8227,0.8197,0.8187,0.8182,0.8174,0.8247,0.813,0.7936,0.7916,0.8169,0.8171,0.8173,0,0.8561,0.8476,0.8393,0.8374,0.8342,0.8301,0.8286,0.8258,0.8225,0.8183,0.8162,0.8111,0.8083,0.8043,0.8047,0.8094,0.7943,0.8009,0.7939,0.7938,0.7904,0.7906,0.7702,0.7887,0.7887,0.7887,0.7888,0,0.8405,0.8328,0.8337,0.8285,0.82,0.8215,0.813,0.8119,0.8093,0.8038,0.8068,0.8016,0.8026,0.7973,0.7976,0.789,0.7877,0.7873,0.7875,0.787,0.787,0.785,0.7859,0.7882,0.7883,0.7884,0.7885,0,0.8251,0.8254,0.8165,0.8142,0.8135,0.8073,0.8053,0.8003,0.8,0.793,0.7915,0.7908,0.7848,0.7849,0.778,0.7782,0.7676,0.7689,0.7687,0.769,0.7619,0.7625,0.7394,0.7363,0.7569,0.7567,0.7565,0,0.8151,0.8093,0.8065,0.8031,0.8014,0.7959,0.7926,0.7938,0.7903,0.7861,0.7816,0.7759,0.7713,0.7614,0.7603,0.7549,0.756,0.7483,0.7552,0.7549,0.7557,0.756,0.7554,0.7469,0.7466,0.7464,0.7463,0,0.7972,0.7976,0.7929,0.7881,0.7842,0.7805,0.7771,0.7741,0.7749,0.7708,0.7647,0.7612,0.7542,0.7484,0.7432,0.7415,0.7439,0.7441,0.7422,0.7416,0.7417,0.7414,0.7649,0.7446,0.7448,0.7449,0.745,0.7451,0.7841,0.7791,0.7763,0.7709,0.7686,0.7653,0.7605,0.7596,0.7546,0.7491,0.7501,0.7433,0.7401,0.7335,0.7312,0.7258,0.7285,0.7257,0.725,0.7243,0.7235,0.7427,0.7249,0.7249,0.725,0.725,0.725,0,0.7662,0.7647,0.7597,0.7549,0.7506,0.7535,0.7499,0.7461,0.7401,0.737,0.7325,0.7254,0.7198,0.7182,0.7128,0.7087,0.7097,0.7072,0.7074,0.7069,0.7214,0.7236,0.7065,0.7065,0.7065,0.7065,0.7065,0.7065,0.7564,0.7481,0.7482,0.7387,0.7372,0.7306,0.7283,0.7252,0.7228,0.7148,0.7102,0.7093,0.7067,0.7011,0.696,0.6957,0.6935,0.6905,0.6906,0.7041,0.7059,0.7077,0.7097,0.6901,0.69,0.6766,0.6765,0.6764]}]]